This is the latest recevied weather packets stored in our database for station/object N4DWK. If no packets are shown the sender has not sent any weather packets the latest 10 day(s).
| Time | Temp. | Humidity | Pressure | Rain* | Wind** | Luminosity | Snow |
|---|---|---|---|---|---|---|---|
| 1788563708 | 24.44° C | 93% | 1013.6 hPa | 0.25 mm | - | 0 W/m² | - |
| 1788563407 | 24.44° C | 93% | 1014 hPa | 0.25 mm | - | 0 W/m² | - |
| 1788563107 | 24.44° C | 92% | 1013.5 hPa | 0.51 mm | - | 0 W/m² | - |
| 1788562807 | 24.44° C | 92% | 1013.3 hPa | 0.51 mm | - | 0 W/m² | - |
| 1788562507 | 24.44° C | 90% | 1013.2 hPa | 0.25 mm | - | 0 W/m² | - |
| 1788562207 | 25° C | 90% | 1013 hPa | 0.25 mm | - | 0 W/m² | - |
| 1788561907 | 25° C | 91% | 1013.2 hPa | 0.25 mm | - | 11 W/m² | - |
| 1788561607 | 25° C | 90% | 1013.3 hPa | 0.25 mm | - | 16 W/m² | - |
| 1788561307 | 25.56° C | 90% | 1013.7 hPa | 0.25 mm | - | 14 W/m² | - |
| 1788561007 | 25.56° C | 90% | 1013.7 hPa | 0.25 mm | - | 23 W/m² | - |
| 1788560706 | 25.56° C | 89% | 1013.3 hPa | 0.25 mm | - | 28 W/m² | - |
| 1788560407 | 25.56° C | 89% | 1013.2 hPa | 0.25 mm | - | 30 W/m² | - |
| 1788560107 | 25.56° C | 87% | 1013.8 hPa | 0.25 mm | - | 32 W/m² | - |
| 1788559807 | 26.11° C | 86% | 1013.9 hPa | 0.25 mm | - | 35 W/m² | - |
| 1788559507 | 26.11° C | 84% | 1013.8 hPa | 0 mm | - | 60 W/m² | - |
| 1788559206 | 26.67° C | 81% | 1013.8 hPa | 0 mm | - | 37 W/m² | - |
| 1788558907 | 26.67° C | 78% | 1013.6 hPa | 0 mm | - | 12 W/m² | - |
| 1788558606 | 27.22° C | 76% | 1013.2 hPa | 0 mm | - | 7 W/m² | - |
| 1788558306 | 27.22° C | 74% | 1012.8 hPa | 0 mm | - | 7 W/m² | - |
| 1788558006 | 27.78° C | 71% | 1012.4 hPa | 0 mm | - | 7 W/m² | - |
| 1788557707 | 28.89° C | 68% | 1012.4 hPa | 0 mm | - | 16 W/m² | - |
| 1788557407 | 30° C | 64% | 1012.4 hPa | 0 mm | - | 25 W/m² | - |
| 1788557106 | 32.22° C | 65% | 1012.3 hPa | 0 mm | - | 25 W/m² | - |
| 1788556807 | 33.89° C | 63% | 1012.3 hPa | 0 mm | - | 9 W/m² | - |
| 1788556506 | 34.44° C | 62% | 1011.7 hPa | 0 mm | - | 37 W/m² | - |
* Rain latest hour (hover to see other rain measurements)
** Current wind speed in m/s (hover to see current wind gust speed)